Startseite
Über Mich
AHP4
Galerie
Sehschlangen
Tourenbuch
Bookmarks
Elektronik
Bewertung
Geschichten
[Tagesmessung] [Jahreswerte] [Information]

Messwerte vom 29.05.2022

Die letzten Messwerte von 23:58:47 Uhr:
KategorieMesswert
Temperatur [°C]9
Luftdruck [mBar]995
Sonneneinstrahlung0
Wind [km/h]0 aus Nordwest
Niederschlag [l/m²]0
rel.Luftfeucht.96.6%
CO2 [ppm]669

Diagramme
Messwerte vom 29.05.2022
Tagesaggregation
KategorieMinimumMaximumSchnittSumme
Temperatur [°C]72411.5688
Luftdruck [mBar]994999995.9583
Sonneneinstrahlung248135.7479
Wind [km/h]8
rF [%]4096.688.87
Niederschlag [l/m²]0
CO2 [ppm]367673456.8
Einordnung alsVegetationstag

Messungen an benachbarten Tagen: Zur Jahresaggregation 2022
Tabelle aller Messwerte
UhrzeitTemperatur [°C]Luftdruck [mBar]SonneWind [km/h]RichtungRegen [l/m²]rF [%]CO2 [ppm]
00:01:46 7 998 0 1 S 0 85.5 423
00:04:47 7 998 0 4 NW 0 85.9 423
00:07:47 7 999 0 0 SW 0 86.3 422
00:10:44 7 998 0 0 O 0 86.4 419
00:13:47 8 998 0 0 SO 0 86.4 419
00:16:48 8 998 0 2 N 0 86.4 420
00:19:46 8 998 0 0 SO 0 86.4 419
00:22:45 8 998 0 1 S 0 86.6 419
00:25:49 8 998 0 0 SO 0 86.7 416
00:28:48 8 998 0 0 NO 0 86.5 418
00:31:48 8 998 0 0 SO 0 86.4 419
00:34:45 8 999 0 1 O 0 86.1 422
00:37:48 8 998 0 0 SW 0 85.8 422
00:40:49 8 998 0 0 SW 0 85.7 419
00:43:47 9 998 0 5 SO 0 85.7 420
00:46:47 9 998 0 1 SO 0 85.9 419
00:49:46 9 998 0 0 S 0 85.5 415
00:52:46 9 998 0 1 SO 0 85.4 421
00:55:48 9 998 0 1 SO 0 85.4 422
00:58:46 9 998 0 0 N 0 85.3 427
01:01:48 9 998 0 1 SW 0 85.2 422
01:04:48 9 998 0 0 SO 0 85.4 422
01:07:48 9 998 0 1 SW 0 85.7 424
01:10:47 9 998 0 4 SO 0 85.9 430
01:13:46 9 998 0 1 NO 0 86.2 421
01:16:46 9 998 0 1 SO 0 86.5 421
01:19:47 9 998 0 1 SO 0 86.4 415
01:22:46 9 999 0 1 O 0 86.4 415
01:25:48 9 998 0 0 SW 0 86.6 418
01:28:48 9 998 0 0 SO 0 86.8 424
01:31:49 9 998 0 1 NW 0 86.7 430
01:34:45 9 998 0 4 S 0 86.6 425
01:37:49 9 998 0 2 SW 0 86.6 427
01:40:46 9 998 0 1 S 0 86.5 430
01:43:46 9 998 0 1 NW 0 86.6 436
01:46:46 9 998 0 2 SO 0 86.7 430
01:49:46 9 998 0 0 SO 0 86.8 433
01:52:47 9 998 0 0 SO 0 86.9 430
01:55:50 9 997 0 0 SW 0 86.9 431
01:58:42 9 998 0 3 0 87 421
02:01:47 9 998 0 3 SO 0 87 422
02:04:48 9 998 0 3 SW 0 86.8 422
02:07:48 9 998 0 1 SO 0 87 422
02:10:48 9 998 0 0 S 0 86.9 427
02:13:48 9 998 0 2 SW 0 86.8 430
02:16:46 9 998 0 2 SO 0 86.7 427
02:19:47 9 998 0 0 SW 0 86.7 430
02:22:45 9 998 0 2 W 0 87 433
02:25:48 9 998 0 0 O 0 87.9 427
02:28:49 9 998 0 1 SO 0 88.5 424
02:31:48 9 998 0 2 SO 0 89 431
02:34:45 9 998 0 4 S 0 90 427
02:37:46 9 998 0 1 S 0 91 427
02:40:49 9 998 0 2 SO 0 92.2 427
02:43:47 8 998 0 2 SO 0 92.9 427
02:46:46 8 998 0 1 SW 0 93.5 435
02:49:44 8 998 0 2 0 94.1 430
02:52:48 8 998 0 1 SO 0 94.1 431
02:55:47 8 998 0 4 SO 0 94.4 427
02:58:46 8 998 0 0 SO 0 94.6 436
03:01:46 8 998 0 0 S 0 94.9 431
03:04:47 8 998 0 2 SW 0 95.3 430
03:07:45 8 998 0 1 S 0 95.6 426
03:10:46 8 998 0 2 S 0 95.7 428
03:13:46 8 998 0 1 SW 0 96.3 424
03:16:46 8 998 0 1 S 0 96.6 416
03:19:47 8 997 0 2 O 0 96.6 421
03:22:46 8 998 0 7 NW 0 96.6 421
03:25:48 8 998 0 1 N 0 96.6 429
03:28:47 8 997 0 2 SW 0 96.6 424
03:31:46 8 998 0 1 S 0 96.6 428
03:34:47 8 998 0 0 O 0 96.6 428
03:37:49 8 997 0 5 S 0 96.6 436
03:40:47 8 998 0 0 O 0 96.6 434
03:43:47 8 998 0 1 SW 0 96.6 429
03:46:47 8 998 0 0 S 0 96.6 424
03:49:47 8 997 0 0 N 0 96.6 433
03:52:48 8 998 0 1 SW 0 96.6 433
03:55:47 8 998 0 0 SO 0 96.6 436
03:58:45 8 998 0 0 O 0 96.6 430
04:01:47 8 997 0 0 O 0 96.6 422
04:04:45 8 997 0 1 SO 0 96.6 427
04:07:44 8 997 0 1 N 0 96.6 427
04:10:48 8 997 0 4 SO 0 96.6 428
04:13:45 8 997 0 2 W 0 96.6 427
04:16:45 8 997 0 0 S 0 96.6 428
04:19:46 8 997 0 0 SO 0 96.6 431
04:22:47 8 997 0 0 O 0 96.6 434
04:25:46 8 997 0 0 SO 0 96.6 439
04:28:47 8 997 0 0 NO 0 96.6 439
04:31:45 8 997 0 0 S 0 96.6 436
04:34:47 8 997 0 0 SO 0 96.6 430
04:37:45 8 997 0 2 SO 0 96.6 430
04:40:45 8 997 4 0 SW 0 96.6 433
04:43:45 8 997 3 0 S 0 96.6 427
04:46:48 8 997 4 0 SW 0 96.6 431
04:49:46 8 997 4 0 O 0 96.6 431
04:52:48 8 997 9 0 S 0 96.6 434
04:55:46 8 997 16 0 SO 0 96.6 436
04:58:50 8 997 20 1 SW 0 96.6 428
05:01:46 8 997 26 5 SO 0 96.6 427
05:04:46 8 997 32 1 NO 0 96.6 426
05:07:50 8 997 37 0 SO 0 96.6 427
05:10:49 8 997 49 0 O 0 96.6 436
05:13:47 8 997 61 1 SO 0 96.6 439
05:16:44 8 997 70 1 S 0 96.6 428
05:19:48 8 997 75 0 SW 0 96.6 427
05:22:46 8 997 91 0 SW 0 96.6 430
05:25:49 8 997 101 0 SO 0 96.6 431
05:28:46 8 997 105 0 W 0 96.6 427
05:31:47 8 997 102 0 SO 0 96.6 427
05:34:48 8 996 97 0 O 0 96.6 428
05:37:49 8 997 107 1 SO 0 96.6 422
05:40:48 8 996 116 2 S 0 96.6 428
05:43:47 8 996 118 0 S 0 96.6 433
05:46:47 8 996 120 0 SW 0 96.6 437
05:49:47 8 996 130 0 S 0 96.6 437
05:52:49 8 997 135 3 SO 0 96.6 434
05:55:48 8 996 136 1 W 0 96.6 434
05:58:47 8 996 131 0 S 0 96.6 439
06:01:49 8 996 125 1 S 0 96.6 436
06:04:47 8 996 142 1 SW 0 96.6 435
06:07:47 8 996 157 0 SO 0 96.6 414
06:10:48 8 996 167 0 SO 0 96.6 418
06:13:46 9 996 173 3 SW 0 96.6 415
06:16:45 9 997 177 1 S 0 96.6 419
06:19:46 9 996 181 0 W 0 96.6 423
06:22:48 9 997 180 0 S 0 96.6 420
06:25:49 9 996 173 0 NO 0 96.6 419
06:28:46 9 996 174 3 S 0 96.6 419
06:31:46 9 996 165 0 S 0 96.6 424
06:34:47 9 996 155 0 S 0 96.6 415
06:37:48 9 996 152 1 S 0 96.6 413
06:40:47 9 996 169 2 S 0 96.6 415
06:43:49 9 996 170 0 S 0 96.6 419
06:46:48 9 996 175 0 SW 0 96.6 422
06:49:49 9 996 188 0 NO 0 96.6 425
06:52:47 9 996 193 0 S 0 96.6 424
06:55:48 9 996 187 1 SO 0 96.6 424
06:58:47 9 996 185 2 NW 0 96.6 422
07:01:46 9 997 188 0 S 0 96.6 424
07:04:48 9 996 189 0 SO 0 96.6 424
07:07:49 9 996 192 0 SO 0 96.6 422
07:10:48 10 996 196 3 SW 0 96.6 424
07:13:49 10 997 198 0 S 0 96.6 413
07:16:48 10 996 197 0 SO 0 96.6 415
07:19:49 10 996 195 0 SO 0 96.6 413
07:22:48 10 996 195 1 SO 0 96.5 418
07:25:49 10 997 197 4 SW 0 96.3 422
07:28:49 10 997 199 0 SO 0 96.4 421
07:31:46 10 996 201 1 O 0 96.4 422
07:34:50 10 996 200 0 S 0 96.4 418
07:37:47 10 996 193 0 SO 0 96.4 421
07:40:47 10 996 204 0 O 0 96.3 421
07:43:48 10 996 207 1 W 0 96 422
07:46:50 10 997 200 1 S 0 95.6 419
07:49:47 10 996 202 2 S 0 95.6 421
07:52:50 10 997 206 1 SW 0 95.4 422
07:55:49 11 996 205 2 S 0 95.3 422
07:58:47 11 996 205 0 O 0 95.3 421
08:01:49 11 996 210 1 SO 0 95.2 419
08:04:49 11 996 210 1 W 0 94.8 419
08:07:48 11 996 212 0 W 0 94.8 419
08:10:49 11 996 215 1 W 0 95 424
08:13:47 11 996 213 0 SO 0 94.5 419
08:16:49 12 996 211 0 NO 0 94.5 416
08:19:47 12 996 211 0 SW 0 94.1 410
08:22:48 12 996 207 1 NW 0 93.4 410
08:25:49 12 996 202 0 SO 0 93.2 413
08:28:50 12 996 203 0 SO 0 93.1 413
08:31:47 11 996 207 0 NO 0 93.1 416
08:34:46 11 996 211 0 S 0 93.1 413
08:37:46 11 996 210 0 O 0 93.3 413
08:40:46 11 996 210 0 S 0 93.6 418
08:43:48 11 996 214 2 O 0 94.1 422
08:46:47 11 996 219 1 W 0 94.3 422
08:49:47 12 996 218 0 SW 0 94.6 419
08:52:48 12 996 209 0 O 0 94.6 421
08:55:51 12 996 204 2 W 0 93.6 420
08:58:51 12 996 205 2 NW 0 92.9 367
09:01:46 12 996 205 1 SW 0 92.5 419
09:04:49 11 996 204 0 O 0 92.6 425
09:07:51 11 996 214 0 SO 0 93.3 422
09:10:47 11 996 211 0 W 0 93.4 425
09:13:46 11 997 197 0 S 0 93.7 418
09:16:47 11 997 195 0 W 0 93.7 419
09:19:49 11 996 203 1 NO 0 93.9 428
09:22:47 11 996 212 3 S 0 93.9 418
09:25:48 11 996 215 2 N 0 94.5 409
09:28:50 11 996 218 1 NO 0 95.4 413
09:31:46 11 996 222 0 S 0 95.6 419
09:34:48 12 996 221 1 S 0 95.7 422
09:37:47 12 995 221 0 S 0 95.3 416
09:40:49 12 996 220 1 S 0 94.3 413
09:43:49 12 996 221 3 W 0 93.7 416
09:46:48 12 996 222 0 SO 0 92.9 413
09:49:50 13 996 224 2 NW 0 92.6 416
09:52:49 13 996 224 4 SW 0 91.8 422
09:55:50 13 997 222 2 S 0 91.1 416
09:58:46 13 995 220 1 S 0 91 410
10:01:50 13 996 215 2 W 0 89.9 407
10:04:49 12 996 215 1 NW 0 89.4 421
10:07:47 12 995 210 1 W 0 89.9 422
10:10:49 12 996 202 0 NW 0 90.1 419
10:13:46 12 996 214 0 NW 0 90.7 415
10:16:49 12 996 210 1 W 0 92.1 416
10:19:48 12 996 210 1 NO 0 92.8 416
10:22:47 12 997 206 0 SO 0 93 422
10:25:47 12 996 219 0 S 0 92.4 413
10:28:47 12 996 221 2 O 0 92.5 419
10:31:49 12 997 221 0 SW 0 92.5 416
10:34:49 13 996 222 1 NW 0 92.4 419
10:37:46 13 996 223 1 0 92.4 419
10:40:49 13 997 223 4 SW 0 92 416
10:43:47 13 995 223 1 SO 0 91.9 410
10:46:48 13 996 226 2 O 0 90.1 410
10:49:46 14 997 228 0 O 0 89.8 416
10:52:49 14 996 228 0 SO 0 89.9 419
10:55:48 15 996 214 3 W 0 88.6 420
10:58:31 13 996 187 4 W 0 81.6 422
11:01:48 14 996 187 1 SW 0 83.9 413
11:04:47 14 996 199 2 SO 0 84.2 410
11:07:49 13 996 207 4 NW 0 85.9 413
11:10:47 12 997 213 2 NW 0 87.1 418
11:13:48 12 996 219 1 SW 0 88.3 418
11:16:49 12 996 222 0 NO 0 89.5 425
11:19:50 13 996 209 0 NW 0 90.1 428
11:22:46 13 996 211 3 O 0 89.7 424
11:25:46 13 996 217 0 S 0 88.5 419
11:28:48 13 996 214 1 SW 0 88.2 418
11:31:47 13 995 212 1 SW 0 87.3 419
11:34:48 13 996 213 1 S 0 87.5 410
11:37:47 13 996 215 1 S 0 87.3 413
11:40:49 13 996 216 1 W 0 87.4 415
11:43:50 13 997 218 1 SW 0 87.5 416
11:46:48 13 996 219 0 N 0 87.6 419
11:49:46 13 996 221 1 W 0 87.4 419
11:52:48 13 996 222 0 NW 0 87.4 418
11:55:47 13 995 223 0 S 0 87 413
11:58:48 13 996 224 1 S 0 86.4 413
12:01:48 14 996 226 1 NW 0 86.2 410
12:04:48 14 996 227 5 S 0 85.2 413
12:07:50 14 996 227 1 SW 0 83.8 410
12:10:45 15 997 227 1 N 0 83.4 404
12:13:46 15 995 227 0 S 0 83.6 407
12:16:48 15 996 218 0 O 0 81.8 418
12:19:47 15 995 207 0 W 0 81.4 419
12:22:50 15 996 207 4 SO 0 80 424
12:25:48 14 996 214 0 SO 0 80.2 419
12:28:48 14 996 217 3 W 0 81.4 420
12:31:51 13 996 216 2 SW 0 83.8 416
12:34:49 13 995 215 3 SO 0 84.7 419
12:37:49 12 996 214 2 SW 0 85 416
12:40:50 12 996 213 1 SW 0 86.9 425
12:43:49 12 996 211 8 NW 0 87.4 422
12:46:48 12 996 211 0 NO 0 87.7 418
12:49:50 12 996 217 1 S 0 88.2 422
12:52:47 13 996 220 2 N 0 88.3 415
12:55:49 13 996 223 2 S 0 88 418
12:58:47 13 995 225 1 S 0 87.1 416
13:01:48 14 995 228 3 O 0 85.2 424
13:04:47 14 996 230 0 S 0 84.7 419
13:07:47 14 995 231 1 SW 0 84.5 416
13:10:49 15 995 227 1 S 0 82.1 419
13:13:51 15 995 212 1 NO 0 80.9 422
13:16:50 15 995 213 0 S 0 79.3 425
13:19:47 15 995 223 0 S 0 79.7 419
13:22:46 14 995 226 1 S 0 81.1 421
13:25:47 14 995 225 3 O 0 80.5 410
13:28:50 14 995 222 1 SW 0 80.2 410
13:31:47 14 996 231 4 SW 0 80.5 407
13:34:47 15 995 233 0 O 0 80.9 407
13:37:49 16 995 233 3 NW 0 81.6 413
13:40:48 17 995 234 3 SO 0 82.6 415
13:43:32 14 995 235 5 SW 0 73.2 415
13:46:48 19 995 233 1 NO 0 74.1 416
13:49:47 19 995 230 2 SW 0 73.7 410
13:52:47 18 995 229 2 SW 0 73.7 419
13:55:47 18 995 231 3 SO 0 73.5 418
13:58:47 18 995 235 4 S 0 74.1 413
14:01:48 19 995 236 0 S 0 74 413
14:04:48 19 995 236 1 W 0 72.8 412
14:07:46 19 995 235 4 SW 0 73 416
14:10:46 19 995 213 1 W 0 70.9 419
14:13:51 19 995 205 2 SW 0 68.7 413
14:16:31 18 995 209 2 W 0 61.7 410
14:19:48 16 995 211 4 SO 0 72.3 410
14:22:47 15 995 206 1 SO 0 73.4 407
14:25:48 15 995 206 2 NW 0 75 413
14:28:47 14 995 212 3 SW 0 76.4 412
14:31:49 14 995 208 2 SW 0 77.4 410
14:34:46 14 995 208 1 S 0 79.3 413
14:37:49 14 995 209 2 SW 0 80.9 413
14:40:49 14 996 215 2 SO 0 81.2 410
14:43:47 14 995 222 0 S 0 79.9 407
14:46:46 14 995 229 1 S 0 79.6 407
14:49:49 14 995 235 0 S 0 77.8 409
14:52:49 15 996 238 2 S 0 78 407
14:55:49 16 995 243 1 SW 0 78.3 408
14:58:45 17 995 244 0 NW 0 71.6 406
15:01:47 18 995 245 4 S 0 63.5 407
15:04:50 18 995 237 0 SW 0 63.8 410
15:07:48 18 995 227 3 SW 0 64.6 404
15:10:48 17 995 229 1 NO 0 65.7 407
15:13:47 17 995 243 2 NO 0 65.8 413
15:16:47 17 995 238 2 S 0 67.2 409
15:19:48 17 995 242 3 S 0 67.8 410
15:22:46 17 995 214 4 S 0 66.9 407
15:25:51 17 995 201 3 NW 0 63.8 404
15:28:52 16 995 197 2 SW 0 66.2 407
15:31:47 15 995 195 1 N 0 69.8 410
15:34:47 15 995 189 0 S 0 71.1 408
15:37:50 15 995 192 2 SW 0 73.7 404
15:40:48 15 995 199 8 W 0 74.8 404
15:43:47 14 995 200 0 S 0 77.2 401
15:46:49 14 995 186 1 W 0 78.8 407
15:49:46 13 995 155 0 N 0 80.3 410
15:52:47 13 995 171 0 NW 0 81 406
15:55:46 13 995 192 0 NW 0 82.6 412
15:58:49 12 995 206 1 NO 0 85.3 410
16:01:49 12 995 220 1 NW 0 85.9 404
16:04:49 12 995 231 2 NW 0 86.7 405
16:07:49 12 995 231 0 O 0 88.2 408
16:10:47 12 995 236 0 W 0 89 401
16:13:46 12 995 229 1 W 0 89.2 419
16:16:49 13 995 223 3 NW 0 89.1 427
16:19:48 12 995 222 3 NO 0 87.6 418
16:22:47 12 995 227 3 N 0 87.3 424
16:25:51 12 995 220 3 NO 0 88.3 429
16:28:49 13 995 226 1 SO 0 88.9 430
16:31:48 13 995 232 1 SW 0 89.9 430
16:34:45 14 995 241 1 S 0 90 424
16:37:48 15 995 241 1 SW 0 88 422
16:40:46 15 995 234 1 O 0 86 422
16:43:47 15 995 237 4 S 0 84.3 422
16:46:48 16 995 241 4 SO 0 81.8 427
16:49:48 16 995 244 1 SO 0 82.7 430
16:52:49 17 995 242 2 O 0 81.5 431
16:55:49 17 995 239 2 SO 0 80.4 427
16:58:46 17 995 194 4 W 0 78 431
17:01:46 16 995 196 2 O 0 77.2 431
17:04:45 16 995 195 3 S 0 77.9 434
17:07:47 16 995 201 0 NW 0 79.6 431
17:10:49 16 995 204 0 S 0 80.4 442
17:13:48 16 995 226 1 SW 0 80.4 448
17:16:47 17 995 224 2 SO 0 79.2 445
17:19:48 19 995 229 6 W 0 73.4 436
17:22:46 19 995 245 2 O 0 69 427
17:25:47 19 995 245 0 NW 0 68.6 419
17:28:49 20 995 247 2 SO 0 70 417
17:31:49 21 995 248 1 SO 0 69.2 419
17:34:50 22 995 248 3 SW 0 65.1 421
17:37:49 23 994 248 3 NO 0 62 428
17:40:49 23 995 248 2 S 0 58.2 439
17:43:49 24 995 248 1 SO 0 57.7 442
17:46:49 22 995 229 0 SO 0 56.9 443
17:49:30 22 995 231 0 SW 0 49.9 433
17:52:49 22 995 234 1 W 0 63.6 421
17:55:48 22 995 226 0 NW 0 67.3 404
17:58:48 21 995 221 0 SO 0 70.7 404
18:01:32 21 995 218 0 SO 0 40 406
18:04:47 21 995 221 1 SO 0 74.1 418
18:07:48 20 995 221 0 SO 0 75.6 430
18:10:50 20 995 226 1 S 0 77.9 448
18:13:46 20 995 230 0 O 0 79.1 456
18:16:48 19 995 229 1 SO 0 79.6 466
18:19:47 19 995 234 1 S 0 80.3 474
18:22:49 19 995 240 1 S 0 80.4 475
18:25:50 16 995 241 6 W 0 80.8 480
18:28:46 17 995 222 1 S 0 75.6 489
18:31:49 16 995 219 1 NO 0 75.5 502
18:34:48 16 994 197 2 O 0 75.9 512
18:37:46 15 995 168 2 S 0 76.4 526
18:40:47 15 995 151 1 NO 0 77.3 527
18:43:48 14 995 145 3 N 0 75.5 534
18:46:47 13 995 158 3 W 0 77.1 539
18:49:50 12 995 172 4 NW 0 82.3 553
18:52:48 11 995 244 8 N 0 86.1 553
18:55:48 11 995 233 3 W 0 86.7 563
18:58:50 10 995 232 2 NW 0 91.2 568
19:01:51 11 995 229 1 NW 0 92.1 574
19:04:48 11 995 224 0 SW 0 92.4 580
19:07:49 11 995 222 0 O 0 93.1 585
19:10:46 12 995 179 0 S 0 93.1 591
19:13:52 12 995 221 0 SO 0 93.5 556
19:16:50 12 995 219 0 NW 0 93.7 537
19:19:48 12 995 215 1 N 0 93.6 554
19:22:47 12 995 209 0 N 0 93.1 574
19:25:48 12 995 207 0 NW 0 93.4 583
19:28:47 12 995 208 0 NW 0 93.2 592
19:31:48 12 995 210 0 NW 0 93.2 597
19:34:48 12 995 197 0 SO 0 93.8 603
19:37:48 12 995 167 0 SO 0 94.3 607
19:40:48 12 995 161 0 SO 0 94.3 609
19:43:49 12 995 187 0 SO 0 94.5 612
19:46:47 12 995 171 0 NW 0 94.6 618
19:49:48 12 995 164 0 O 0 94.6 619
19:52:48 12 995 173 0 NW 0 94.6 623
19:55:48 12 995 167 0 NW 0 94.6 630
19:58:47 11 995 165 0 S 0 94.9 624
20:01:48 11 995 165 2 SW 0 95.2 620
20:04:47 11 995 163 2 S 0 95.3 627
20:07:48 11 995 162 0 S 0 95.4 641
20:10:47 11 995 122 0 S 0 95.5 614
20:13:48 11 994 163 0 SO 0 95.6 515
20:16:48 11 995 159 0 SO 0 95.7 504
20:19:48 11 995 156 1 SO 0 96 533
20:22:49 11 995 159 0 O 0 96.1 552
20:25:46 11 995 164 0 S 0 96.1 555
20:28:48 11 995 166 0 SO 0 96.2 557
20:31:51 11 995 168 0 SO 0 96.4 556
20:34:47 11 995 177 0 SO 0 96.5 559
20:37:46 11 995 171 0 S 0 96.6 565
20:40:49 11 995 158 0 SO 0 96.6 568
20:43:48 11 995 147 0 NW 0 96.6 574
20:46:48 11 995 137 0 SO 0 96.6 574
20:49:49 10 995 136 0 O 0 96.6 569
20:52:47 10 995 129 0 S 0 96.6 560
20:55:48 10 995 127 0 SW 0 96.6 554
20:58:47 10 995 118 1 SW 0 96.6 553
21:01:49 10 995 98 2 SW 0 96.6 544
21:04:47 10 995 92 0 SO 0 96.6 542
21:07:47 10 995 76 0 SO 0 96.6 541
21:10:47 10 995 80 0 SO 0 96.6 541
21:13:47 10 995 85 0 SO 0 96.6 533
21:16:47 10 995 85 0 SO 0 96.6 533
21:19:47 10 995 78 0 S 0 96.6 533
21:22:46 9 995 72 0 O 0 96.6 539
21:25:45 9 995 63 0 O 0 96.6 542
21:28:46 9 995 54 0 S 0 96.6 550
21:31:47 9 995 41 0 SO 0 96.6 551
21:34:46 9 995 37 0 SO 0 96.6 543
21:37:48 9 995 29 1 S 0 96.6 550
21:40:48 9 995 21 0 S 0 96.6 553
21:43:46 8 995 15 0 S 0 96.6 550
21:46:45 8 995 11 0 S 0 96.6 545
21:49:45 8 995 7 0 S 0 96.6 542
21:52:46 9 995 6 1 S 0 96.6 542
21:55:45 9 995 4 0 S 0 96.6 548
21:58:44 9 995 3 0 S 0 96.6 553
22:01:45 9 995 3 0 S 0 96.6 550
22:04:44 9 995 3 0 S 0 96.6 541
22:07:48 9 995 3 0 S 0 96.6 534
22:10:48 9 995 0 1 S 0 96.6 545
22:13:50 9 995 0 0 SO 0 96.6 550
22:16:47 9 995 0 0 SO 0 96.6 548
22:19:45 9 995 0 0 S 0 96.6 553
22:22:45 9 995 0 1 O 0 96.6 556
22:25:46 9 995 0 1 S 0 96.6 553
22:28:47 9 995 0 0 S 0 96.6 551
22:31:46 9 995 0 0 S 0 96.6 552
22:34:47 9 995 0 0 S 0 96.6 554
22:37:46 9 995 0 0 S 0 96.6 560
22:40:45 9 995 0 0 S 0 96.6 560
22:43:45 9 995 0 0 SW 0 96.6 564
22:46:47 9 995 0 0 SO 0 96.6 565
22:49:47 9 995 0 0 SO 0 96.6 550
22:52:48 9 995 0 0 SO 0 96.6 557
22:55:45 9 995 0 0 O 0 96.6 560
22:58:46 9 995 0 0 O 0 96.6 565
23:01:48 9 995 0 0 0 96.6 574
23:04:46 9 995 0 0 S 0 96.6 577
23:07:47 9 995 0 0 S 0 96.6 585
23:10:48 9 995 0 0 SO 0 96.6 596
23:13:46 9 995 0 0 SW 0 96.6 606
23:16:48 9 995 0 0 SO 0 96.6 617
23:19:47 9 995 0 0 SO 0 96.6 624
23:22:46 9 995 0 0 S 0 96.6 639
23:25:49 9 995 0 0 SW 0 96.6 659
23:28:49 9 995 0 0 SW 0 96.6 656
23:31:48 9 995 0 0 SO 0 96.6 653
23:34:47 9 995 0 2 SO 0 96.6 657
23:37:47 9 995 0 0 SO 0 96.6 661
23:40:45 9 995 0 0 S 0 96.6 662
23:43:46 9 995 0 0 SW 0 96.6 657
23:46:46 9 995 0 1 W 0 96.6 653
23:49:47 9 995 0 2 NW 0 96.6 660
23:52:48 9 995 0 0 NW 0 96.6 665
23:55:47 9 995 0 0 NW 0 96.6 673
23:58:47 9 995 0 0 NW 0 96.6 669

Letzte Änderung : 22-Jul-2022
Copyright Jens Köhler, Wolfsburg, Obere Dorfstraße 10d